カタログに戻る

RISAT-2BR1

運用中科学VLEO
NORAD 44857·PAYLOAD·🇮🇳 India

打ち上げ Dec 11, 2019 から Satish Dhawan Space Centre

Loading…

次のパス (今後24時間)

TLE

最新Source: Space-Track

元期: Sep 14, 2026, 14:32 UTC

1 44857U 19089F   26257.60620828  .00001974  00000-0  15822-3 0  9991
2 44857  36.9611 301.2691 0012251 192.1085 167.9363 15.00862282370644

AllMySatでRISAT-2BR1をリアルタイム追跡

Download on the App Store